Terminal Aerodrome Forecast
Issued by NWS Sterling, VA

Current Version | Previous Version | Text Only | Print | Product List | Glossary Off
Versions: 1 2 3 4 5 6 7 8 9 10 11 12 13 14 15 16 17 18 19

000
FTUS41 KLWX 260900 AAA
TAFMRB
TAF AMD
KMRB 260900Z 2609/2706 00000KT 4SM BR FEW040 SCT250
     FM261000 00000KT 2SM BR FEW040 SCT250
     FM261100 00000KT 1SM BR FEW040 SCT150
     FM261400 VRB03KT 3SM BR FEW040 SCT250
     FM261500 VRB03KT P6SM FEW040 SCT250=

USA.gov is the U.S. government's official web portal to all federal, state and local government web resources and services.